Wind_Speed
22 22 23 24 25 25 26 26 28 29 30 29 30 30 30 31 31 31 32 33 34 34 34 34 35 36 37 39 40 41 43 44 44 45 46 46 45 45 45 45 46 46 46
21 22 22 23 24 24 25 26 27 27 27 27 28 29 29 30 31 31 32 33 34 34 34 34 34 36 37 39 40 41 42 42 43 43 44 44 43 44 44 44 45 45 45
21 22 23 23 24 24 25 26 26 27 27 27 28 28 29 30 30 31 32 32 33 33 34 34 35 36 37 38 39 39 40 41 41 42 42 41 41 42 42 43 44 44 44
21 22 22 24 25 26 26 26 26 26 27 27 28 28 28 29 29 30 30 31 31 32 33 34 35 36 37 37 37 38 38 39 40 40 40 39 39 40 41 41 42 42 42
22 22 23 24 25 26 26 26 27 26 26 27 27 27 28 28 29 29 29 30 31 32 32 33 34 35 36 36 36 37 38 38 38 39 38 38 39 40 41 41 42 42 42
23 24 24 25 26 26 26 27 27 27 27 27 26 27 27 28 29 29 30 30 31 31 32 32 33 33 34 34 35 36 36 37 38 38 37 38 39 40 41 41 41 41 41
23 24 25 25 26 25 26 27 26 26 26 27 27 27 27 28 29 29 29 30 30 31 31 32 32 33 34 34 34 35 36 37 38 38 38 39 39 40 40 41 41 41 41
24 24 25 25 25 26 26 26 27 27 27 27 27 27 27 28 28 29 29 30 30 30 31 31 32 33 33 34 34 35 35 37 38 39 39 40 40 40 41 41 41 41 41
23 24 24 25 26 26 26 26 27 27 28 28 28 28 28 28 29 29 30 30 30 30 30 31 32 33 34 34 35 35 37 38 40 40 40 40 40 41 42 42 42 42 42
23 24 25 25 26 26 27 27 28 28 28 29 29 29 28 28 29 30 30 31 31 31 32 32 33 34 35 35 36 37 38 39 40 40 41 41 41 41 42 42 43 44 44
24 25 25 26 27 27 28 28 28 29 29 29 29 29 29 28 29 30 31 32 32 32 33 34 34 36 36 37 37 38 39 40 40 41 41 41 41 41 42 43 44 45 45
26 26 27 27 28 28 28 28 28 28 28 28 29 29 30 30 31 31 32 33 33 33 34 35 36 36 37 38 38 39 40 41 42 42 42 41 41 42 43 44 45 46 47
27 28 28 28 28 28 28 28 28 29 29 29 29 30 31 32 32 33 34 34 35 35 36 36 36 37 38 38 39 40 40 41 42 41 41 41 43 44 45 45 46 47 48
28 28 28 29 29 29 30 30 30 30 30 31 31 32 32 33 34 34 34 35 35 36 37 37 38 38 39 39 40 41 41 42 42 42 42 43 44 45 46 46 47 47 47
29 30 30 30 31 31 31 32 32 32 32 33 33 33 34 34 34 35 35 36 37 37 38 39 39 39 40 40 41 42 43 44 44 43 44 44 45 46 47 47 48 48 48
31 31 32 32 32 32 33 34 34 34 34 34 34 35 35 35 35 36 36 37 38 39 39 40 41 41 42 42 42 43 44 45 44 44 45 46 46 47 47 48 48 48 48
33 33 33 34 34 34 35 35 35 35 35 35 36 36 37 37 37 37 38 39 39 40 41 42 42 42 42 43 43 44 45 45 45 46 46 46 46 47 47 47 47 48 48
34 34 35 35 35 36 36 37 37 37 36 36 37 38 39 39 39 39 40 41 41 42 42 43 43 43 44 44 45 46 46 46 46 46 46 46 46 46 46 47 47 47 47
36 36 37 37 37 38 38 38 38 38 38 38 39 40 40 41 41 42 42 42 42 42 43 43 44 45 45 46 46 46 46 46 46 46 46 46 46 46 46 46 46 46 46
39 39 39 39 40 40 40 39 39 39 39 40 40 41 42 42 42 43 43 43 43 43 44 44 45 46 46 47 47 46 46 46 46 46 46 46 46 46 46 45 45 45 44
41 41 41 42 41 41 41 40 41 41 41 42 43 43 43 43 43 43 43 44 44 44 45 45 46 47 47 47 47 47 46 46 46 46 46 46 46 46 45 45 44 44 43
42 43 43 43 43 43 42 42 43 43 43 44 44 44 44 44 44 44 44 45 45 45 46 47 47 47 47 47 47 47 47 46 46 47 47 46 46 46 45 44 44 43 42
44 44 44 44 44 44 43 43 43 44 44 45 44 45 45 45 46 46 46 46 47 47 48 48 48 48 48 48 48 48 47 47 46 46 46 46 46 45 44 43 42 42 41
46 46 45 45 46 45 45 45 45 45 46 46 46 47 47 48 48 48 47 47 48 48 49 49 49 48 49 49 49 48 48 46 45 45 45 44 44 44 43 42 41 41 40
48 47 47 47 47 47 47 47 47 47 48 48 48 49 49 49 50 50 50 50 50 50 50 50 50 50 50 50 49 49 48 46 45 44 44 43 43 42 42 41 40 40 39
49 49 48 48 48 48 48 49 49 49 49 50 50 51 51 51 51 51 51 51 51 51 51 51 51 51 51 50 49 48 47 46 45 44 43 43 42 42 41 40 39 39 38
Wind_Direction
281 282 287 289 290 290 294 298 298 297 299 301 301 300 299 299 298 297 296 296 297 297 298 298 297 296 296 296 297 297 298 298 298 298 299 299 299 299 299 299 299 299 298
284 283 287 290 291 293 297 299 299 300 302 305 306 304 303 302 299 298 300 301 300 300 299 300 300 300 301 300 301 301 301 301 301 301 301 301 300 301 301 300 299 299 299
285 284 286 290 292 295 299 301 301 302 303 305 307 307 306 305 303 303 304 304 303 303 302 301 302 303 304 304 304 304 304 304 304 304 303 303 303 304 304 303 302 301 301
287 287 287 290 292 294 299 302 303 304 305 306 307 307 307 307 306 307 307 306 305 304 303 303 304 305 306 307 307 306 306 306 307 307 306 305 306 306 305 305 304 303 302
289 289 290 292 293 295 297 300 302 303 305 306 306 306 307 308 308 310 310 307 306 305 306 306 307 308 307 307 307 308 309 309 310 309 308 309 309 309 308 307 306 304 302
289 290 291 293 294 296 297 300 301 303 305 307 305 305 306 307 308 310 310 310 308 307 308 308 309 310 310 310 311 312 311 311 311 312 311 311 311 311 310 310 309 307 305
290 290 292 294 294 295 298 300 302 304 306 306 306 306 306 307 308 310 311 310 309 308 308 309 311 312 313 314 314 314 313 313 314 314 314 314 313 313 313 313 312 311 310
290 290 291 292 294 295 298 302 302 303 303 305 305 307 307 307 308 309 309 309 310 310 311 312 313 314 314 314 314 315 314 315 316 317 316 315 315 315 316 315 314 314 314
291 292 293 294 296 298 300 302 302 303 305 306 307 308 309 308 308 309 310 311 311 312 312 314 314 315 315 315 314 315 315 316 317 317 317 317 316 317 317 316 315 315 315
292 294 295 298 299 300 301 301 302 303 305 307 307 307 308 308 309 311 312 312 313 313 313 314 314 314 314 314 315 315 316 316 316 316 317 317 317 317 317 317 317 316 316
293 295 296 297 298 298 300 301 302 303 305 307 307 307 308 309 309 310 312 313 313 313 313 313 313 313 314 314 315 316 316 316 316 316 317 317 316 316 316 317 317 316 316
293 294 295 296 296 296 297 299 301 303 305 306 307 307 308 308 309 310 312 313 313 313 313 313 313 313 314 314 315 316 316 316 316 316 316 315 315 315 316 316 317 317 317
292 293 294 295 296 297 297 299 301 303 304 305 306 306 306 307 307 308 309 310 312 313 313 314 314 314 314 314 315 316 316 316 316 315 315 315 315 316 316 317 317 317 317
291 292 293 295 296 296 297 298 300 302 303 303 304 305 305 305 306 306 307 309 310 311 312 313 314 314 314 315 316 316 316 316 316 315 315 315 315 315 315 316 317 317 317
290 290 291 292 293 294 295 297 298 299 300 301 302 303 303 304 304 305 306 307 308 310 311 313 313 313 313 313 314 315 315 315 315 315 315 315 315 315 315 315 316 316 317
291 291 292 292 293 294 295 296 297 297 298 299 300 301 302 303 303 304 304 305 306 309 310 312 312 312 312 312 313 314 314 314 314 313 313 313 314 314 315 315 315 316 318
289 290 291 292 292 293 294 295 296 296 296 297 299 300 301 301 302 303 303 304 306 308 309 310 310 310 311 311 312 312 312 312 313 313 312 313 314 314 315 315 315 316 317
287 288 289 291 292 293 293 294 294 294 294 296 297 299 300 301 301 302 303 304 305 306 307 308 309 309 310 310 310 311 312 312 312 313 313 313 314 314 315 315 316 316 317
286 287 288 290 291 292 293 292 292 292 293 294 296 297 299 300 300 301 302 303 304 305 305 306 307 307 308 309 310 310 310 311 312 312 313 314 314 314 315 315 315 316 317
285 286 286 288 289 291 291 291 291 292 293 294 295 296 298 298 299 300 301 302 303 303 304 305 306 306 307 308 308 309 309 310 311 311 312 313 313 314 314 314 315 316 317
284 285 286 287 288 289 290 290 291 291 293 294 294 296 297 298 298 299 300 301 302 303 304 305 306 306 307 307 307 308 308 309 310 310 310 311 312 313 313 313 314 315 316
284 284 285 286 287 288 289 290 290 291 293 294 294 295 297 298 298 298 299 300 301 303 304 305 306 306 306 306 306 307 307 308 308 309 309 310 310 311 312 313 313 314 316
283 284 284 285 286 287 288 289 290 291 292 293 293 294 295 296 296 297 298 299 301 302 303 304 304 305 306 306 306 306 306 307 307 307 308 308 309 311 311 312 312 314 315
282 282 283 284 286 287 288 289 289 290 290 291 291 293 294 295 296 296 297 298 299 300 302 303 304 304 304 305 306 306 306 306 306 306 307 307 308 310 310 310 312 313 314
281 282 283 284 285 286 287 287 288 288 289 289 290 291 293 294 295 295 296 297 299 300 300 301 302 303 303 304 305 305 305 305 305 304 305 306 307 308 309 309 311 313 314
280 281 282 283 284 285 286 287 288 288 289 289 290 290 291 293 294 294 295 295 297 298 298 299 300 301 302 303 304 304 304 303 304 303 303 305 306 307 307 308 309 311 312
Height
5685 5683 5681 5679 5677 5674 5671 5669 5666 5662 5659 5655 5651 5647 5643 5640 5637 5633 5630 5627 5623 5620 5616 5612 5609 5605 5601 5597 5593 5588 5584 5579 5575 5570 5564 5559 5553 5548 5543 5538 5532 5527 5522
5679 5677 5675 5673 5671 5668 5665 5662 5659 5656 5652 5648 5644 5640 5637 5633 5629 5626 5622 5619 5615 5611 5608 5604 5600 5596 5591 5587 5582 5578 5573 5568 5564 5559 5553 5547 5542 5537 5532 5526 5520 5515 5510
5673 5672 5670 5668 5665 5662 5659 5656 5653 5649 5646 5642 5638 5634 5630 5626 5622 5618 5615 5611 5607 5603 5599 5595 5591 5587 5582 5577 5573 5568 5563 5558 5553 5548 5542 5537 5531 5526 5521 5515 5509 5503 5498
5668 5666 5664 5661 5659 5656 5654 5650 5647 5643 5639 5635 5631 5627 5623 5619 5615 5611 5607 5603 5599 5595 5591 5587 5583 5578 5573 5568 5563 5558 5553 5548 5543 5538 5532 5527 5521 5516 5510 5505 5500 5493 5487
5662 5660 5658 5655 5653 5650 5647 5644 5641 5637 5633 5629 5625 5621 5617 5613 5609 5605 5600 5596 5592 5588 5584 5579 5575 5570 5565 5560 5555 5549 5544 5539 5534 5528 5523 5517 5512 5506 5501 5495 5489 5483 5477
5656 5654 5652 5649 5647 5644 5641 5638 5635 5631 5627 5623 5619 5615 5611 5607 5603 5598 5594 5590 5585 5581 5577 5572 5568 5563 5557 5552 5547 5541 5536 5531 5525 5519 5514 5508 5502 5496 5490 5484 5478 5473 5468
5650 5648 5646 5643 5641 5638 5635 5632 5629 5625 5621 5618 5614 5609 5605 5601 5596 5592 5588 5583 5579 5575 5570 5566 5561 5555 5550 5545 5540 5534 5528 5522 5516 5511 5505 5499 5493 5488 5482 5475 5468 5462 5456
5644 5642 5640 5637 5635 5632 5629 5626 5623 5619 5616 5612 5608 5603 5599 5595 5590 5586 5581 5577 5573 5568 5563 5558 5553 5548 5543 5537 5532 5527 5520 5514 5508 5502 5496 5490 5484 5477 5471 5465 5459 5453 5447
5638 5636 5633 5631 5628 5625 5623 5620 5616 5613 5609 5605 5601 5597 5593 5588 5584 5579 5575 5571 5566 5561 5556 5551 5546 5541 5536 5530 5525 5519 5513 5507 5500 5494 5488 5481 5474 5468 5462 5455 5449 5443 5437
5632 5629 5627 5624 5621 5619 5616 5613 5609 5606 5603 5599 5595 5591 5586 5582 5577 5572 5568 5564 5560 5555 5550 5544 5539 5533 5528 5522 5517 5511 5505 5499 5492 5486 5479 5472 5466 5459 5452 5445 5439 5432 5426
5625 5623 5620 5617 5615 5612 5609 5606 5602 5599 5595 5592 5588 5584 5580 5575 5571 5566 5561 5557 5552 5547 5542 5537 5531 5525 5520 5514 5508 5503 5497 5490 5484 5477 5471 5464 5457 5450 5443 5436 5429 5422 5415
5618 5616 5613 5610 5608 5605 5602 5598 5595 5592 5588 5584 5580 5577 5573 5568 5564 5559 5554 5549 5544 5540 5535 5529 5524 5518 5512 5506 5500 5494 5488 5481 5475 5468 5462 5455 5449 5442 5434 5427 5420 5412 5405
5611 5608 5605 5603 5600 5597 5594 5591 5587 5584 5580 5576 5573 5569 5565 5561 5556 5551 5546 5541 5536 5532 5527 5521 5515 5510 5504 5498 5492 5486 5479 5473 5466 5460 5453 5446 5440 5433 5425 5418 5410 5403 5395
5602 5600 5597 5594 5592 5589 5586 5583 5579 5576 5572 5568 5565 5561 5557 5553 5548 5543 5538 5533 5528 5523 5518 5513 5507 5501 5495 5489 5483 5477 5470 5464 5457 5450 5444 5437 5430 5423 5416 5408 5401 5394 5386
5594 5591 5589 5586 5583 5580 5577 5574 5571 5567 5564 5560 5556 5552 5548 5544 5540 5535 5530 5525 5520 5515 5509 5504 5498 5492 5487 5480 5474 5467 5461 5454 5447 5441 5434 5427 5420 5413 5406 5398 5391 5383 5376
5585 5582 5580 5577 5574 5571 5568 5565 5561 5558 5554 5550 5546 5542 5538 5535 5530 5525 5521 5516 5510 5505 5500 5495 5489 5483 5477 5471 5464 5458 5451 5444 5437 5430 5424 5417 5410 5403 5396 5388 5380 5373 5366
5575 5572 5570 5567 5564 5561 5558 5555 5551 5548 5544 5540 5536 5532 5528 5524 5520 5515 5510 5506 5501 5495 5490 5485 5479 5473 5466 5460 5454 5447 5441 5434 5427 5420 5413 5406 5399 5392 5385 5378 5370 5363 5355
5564 5562 5559 5557 5554 5551 5547 5544 5540 5537 5534 5530 5526 5522 5517 5513 5509 5504 5499 5495 5490 5485 5479 5474 5468 5462 5456 5449 5443 5436 5430 5423 5416 5409 5402 5395 5388 5382 5375 5367 5360 5353 5345
5553 5551 5548 5545 5542 5539 5536 5532 5529 5525 5522 5519 5515 5511 5506 5502 5498 5493 5488 5483 5478 5473 5468 5462 5457 5450 5444 5438 5431 5425 5418 5412 5405 5398 5392 5385 5378 5371 5364 5357 5350 5343 5335
5541 5539 5536 5533 5530 5527 5524 5520 5517 5513 5510 5507 5503 5499 5495 5490 5486 5481 5476 5471 5466 5461 5455 5450 5444 5438 5432 5425 5419 5413 5406 5400 5394 5387 5381 5374 5368 5361 5354 5347 5340 5333 5326
5529 5526 5524 5521 5518 5514 5511 5508 5505 5501 5498 5494 5490 5486 5482 5478 5473 5469 5464 5459 5454 5448 5443 5437 5431 5425 5419 5413 5407 5401 5395 5389 5383 5376 5370 5364 5357 5350 5343 5336 5330 5323 5316
5515 5513 5510 5507 5504 5501 5498 5495 5492 5488 5485 5481 5477 5473 5468 5464 5460 5456 5451 5446 5441 5436 5430 5424 5419 5413 5407 5401 5395 5389 5383 5377 5371 5365 5359 5352 5346 5339 5333 5326 5320 5313 5307
5501 5498 5496 5493 5490 5487 5484 5481 5478 5475 5471 5467 5463 5460 5455 5451 5447 5442 5437 5433 5428 5422 5417 5411 5406 5400 5394 5388 5382 5377 5371 5365 5359 5353 5347 5341 5335 5328 5322 5316 5310 5304 5297
5486 5484 5481 5479 5476 5473 5470 5467 5464 5460 5457 5453 5449 5446 5442 5437 5433 5428 5423 5418 5414 5409 5403 5398 5392 5387 5381 5375 5369 5363 5358 5352 5346 5340 5335 5329 5323 5317 5312 5306 5300 5294 5288
5471 5469 5466 5464 5461 5458 5456 5452 5449 5446 5442 5439 5435 5431 5427 5422 5418 5413 5409 5404 5399 5394 5389 5383 5378 5373 5367 5362 5356 5350 5345 5339 5334 5328 5323 5317 5312 5307 5301 5296 5290 5285 5279
5456 5453 5451 5448 5446 5443 5440 5437 5434 5431 5427 5423 5419 5415 5411 5407 5402 5398 5393 5388 5384 5379 5374 5368 5363 5358 5353 5347 5342 5336 5331 5326 5321 5316 5310 5305 5301 5296 5290 5285 5280 5275 5269